Time,TemperatureF,DewpointF,PressureIn,WindDirection,WindDirectionDegrees,WindSpeedMPH,WindSpeedGustMPH,Humidity,HourlyPrecipIn,Conditions,Clouds,dailyrainin,SoftwareType,DateUTC
2013-02-20 00:00:00,42.1,42.0,29.64,North,360,3.7,5.1,100,0.00,,,0.86,Rainwise IP-100,2013-02-20 05:00:00,
2013-02-20 00:05:00,42.0,42.0,29.64,ENE,67,1.4,5.4,100,0.00,,,0.00,Rainwise IP-100,2013-02-20 05:05:00,
2013-02-20 00:10:00,42.0,42.0,29.64,ENE,67,4.0,5.8,100,0.00,,,0.00,Rainwise IP-100,2013-02-20 05:10:00,
2013-02-20 00:15:00,41.9,42.0,29.63,North,360,4.0,4.9,100,0.00,,,0.00,Rainwise IP-100,2013-02-20 05:15:00,
2013-02-20 00:20:00,41.9,42.0,29.62,North,360,1.9,5.6,100,0.00,,,0.00,Rainwise IP-100,2013-02-20 05:20:00,
2013-02-20 00:25:00,41.9,42.0,29.62,ENE,67,2.1,5.4,100,0.06,,,0.01,Rainwise IP-100,2013-02-20 05:25:00,
2013-02-20 00:30:00,41.8,42.0,29.62,North,360,2.1,5.8,100,0.06,,,0.01,Rainwise IP-100,2013-02-20 05:30:00,
2013-02-20 00:35:00,41.7,42.0,29.62,ENE,67,4.2,6.1,100,0.00,,,0.01,Rainwise IP-100,2013-02-20 05:35:00,
2013-02-20 00:40:00,41.4,41.0,29.62,ENE,67,2.3,5.8,100,0.00,,,0.01,Rainwise IP-100,2013-02-20 05:40:00,
2013-02-20 00:45:00,41.1,41.0,29.62,ENE,67,1.9,5.6,100,0.00,,,0.01,Rainwise IP-100,2013-02-20 05:45:00,
2013-02-20 00:50:00,40.8,41.0,29.61,ENE,67,2.3,4.4,100,0.00,,,0.01,Rainwise IP-100,2013-02-20 05:50:00,
2013-02-20 00:55:00,40.7,41.0,29.61,ENE,67,3.7,4.9,100,0.00,,,0.01,Rainwise IP-100,2013-02-20 05:55:00,
2013-02-20 01:00:00,40.5,41.0,29.61,ENE,67,3.5,5.8,100,0.00,,,0.01,Rainwise IP-100,2013-02-20 06:00:00,
2013-02-20 01:05:00,40.5,41.0,29.61,ENE,67,3.3,6.8,100,0.00,,,0.01,Rainwise IP-100,2013-02-20 06:05:00,
2013-02-20 01:10:00,40.7,41.0,29.61,ENE,67,3.0,5.4,100,0.00,,,0.01,Rainwise IP-100,2013-02-20 06:10:00,
2013-02-20 01:15:00,40.8,41.0,29.61,ENE,67,4.2,7.5,100,0.00,,,0.01,Rainwise IP-100,2013-02-20 06:15:00,
2013-02-20 01:20:00,40.9,41.0,29.61,ENE,67,4.7,6.5,100,0.00,,,0.01,Rainwise IP-100,2013-02-20 06:20:00,
2013-02-20 01:25:00,40.8,41.0,29.61,ENE,67,1.4,6.1,100,0.00,,,0.01,Rainwise IP-100,2013-02-20 06:25:00,
2013-02-20 01:30:00,40.6,41.0,29.60,North,360,2.1,4.4,100,0.00,,,0.01,Rainwise IP-100,2013-02-20 06:30:00,
2013-02-20 01:32:00,40.4,40.0,29.61,ENE,67,2.6,4.7,100,0.00,,,0.01,Rainwise IP-100,2013-02-20 06:32:00,
2013-02-20 01:37:00,40.1,40.0,29.61,North,360,3.7,5.4,100,0.00,,,0.01,Rainwise IP-100,2013-02-20 06:37:00,
2013-02-20 01:42:00,39.8,40.0,29.60,North,360,3.3,7.2,100,0.00,,,0.01,Rainwise IP-100,2013-02-20 06:42:00,
2013-02-20 01:47:00,39.4,39.0,29.61,ENE,67,7.9,8.4,100,0.00,,,0.01,Rainwise IP-100,2013-02-20 06:47:00,
2013-02-20 01:52:00,39.4,39.0,29.60,ENE,67,1.9,10.0,100,0.00,,,0.01,Rainwise IP-100,2013-02-20 06:52:00,
2013-02-20 01:57:00,39.5,40.0,29.60,SE,135,4.9,9.1,100,0.00,,,0.01,Rainwise IP-100,2013-02-20 06:57:00,
2013-02-20 02:02:00,39.5,40.0,29.61,ENE,67,5.6,8.2,100,0.00,,,0.01,Rainwise IP-100,2013-02-20 07:02:00,
2013-02-20 02:07:00,39.6,40.0,29.61,ENE,67,10.5,10.5,100,0.00,,,0.01,Rainwise IP-100,2013-02-20 07:07:00,
2013-02-20 02:12:00,39.7,40.0,29.61,SE,135,7.9,14.9,100,0.00,,,0.01,Rainwise IP-100,2013-02-20 07:12:00,
2013-02-20 02:17:00,39.9,40.0,29.61,SE,135,5.4,13.1,100,0.00,,,0.01,Rainwise IP-100,2013-02-20 07:17:00,
2013-02-20 02:22:00,40.0,40.0,29.61,SE,135,5.4,14.7,100,0.00,,,0.01,Rainwise IP-100,2013-02-20 07:22:00,
2013-02-20 02:27:00,40.0,40.0,29.61,North,360,7.0,13.5,100,0.00,,,0.01,Rainwise IP-100,2013-02-20 07:27:00,
2013-02-20 02:32:00,40.0,40.0,29.60,SE,135,6.3,13.3,100,0.00,,,0.01,Rainwise IP-100,2013-02-20 07:32:00,
2013-02-20 02:37:00,40.1,40.0,29.61,NE,45,6.1,11.9,100,0.00,,,0.01,Rainwise IP-100,2013-02-20 07:37:00,
2013-02-20 02:42:00,40.2,40.0,29.60,North,360,11.0,12.1,100,0.00,,,0.01,Rainwise IP-100,2013-02-20 07:42:00,
2013-02-20 02:43:00,40.2,40.0,29.61,NE,45,7.2,12.4,100,0.00,,,0.01,Rainwise IP-100,2013-02-20 07:43:00,
2013-02-20 02:48:00,40.3,40.0,29.60,SE,135,4.9,10.7,100,0.00,,,0.01,Rainwise IP-100,2013-02-20 07:48:00,
2013-02-20 02:54:00,40.1,40.0,29.61,SE,135,4.9,10.3,100,0.00,,,0.01,Rainwise IP-100,2013-02-20 07:54:00,
2013-02-20 02:59:00,39.7,40.0,29.61,ENE,67,7.9,12.6,100,0.00,,,0.01,Rainwise IP-100,2013-02-20 07:59:00,
2013-02-20 03:05:00,39.4,39.0,29.61,North,360,4.0,11.2,100,0.00,,,0.01,Rainwise IP-100,2013-02-20 08:05:00,
2013-02-20 03:10:00,39.2,39.0,29.61,North,360,3.3,12.1,100,0.00,,,0.01,Rainwise IP-100,2013-02-20 08:10:00,
2013-02-20 03:15:00,39.1,39.0,29.61,ESE,112,3.0,11.7,100,0.00,,,0.01,Rainwise IP-100,2013-02-20 08:15:00,
2013-02-20 03:20:00,39.1,39.0,29.61,ESE,112,8.2,14.2,100,0.00,,,0.01,Rainwise IP-100,2013-02-20 08:20:00,
2013-02-20 03:25:00,39.1,39.0,29.60,ESE,112,10.3,11.4,100,0.00,,,0.01,Rainwise IP-100,2013-02-20 08:25:00,
2013-02-20 03:30:00,39.0,39.0,29.61,East,90,7.0,15.2,100,0.00,,,0.01,Rainwise IP-100,2013-02-20 08:30:00,
2013-02-20 03:35:00,38.8,39.0,29.61,East,90,7.2,10.7,99,0.00,,,0.01,Rainwise IP-100,2013-02-20 08:35:00,
2013-02-20 03:40:00,38.5,39.0,29.61,ESE,112,4.2,10.3,99,0.00,,,0.01,Rainwise IP-100,2013-02-20 08:40:00,
2013-02-20 03:45:00,38.3,38.0,29.61,ESE,112,5.8,16.6,99,0.00,,,0.01,Rainwise IP-100,2013-02-20 08:45:00,
2013-02-20 03:50:00,38.3,38.0,29.61,East,90,7.0,14.5,98,0.00,,,0.01,Rainwise IP-100,2013-02-20 08:50:00,
2013-02-20 03:55:00,38.2,38.0,29.61,ESE,112,7.5,12.8,98,0.00,,,0.01,Rainwise IP-100,2013-02-20 08:55:00,
2013-02-20 04:00:00,38.1,38.0,29.61,East,90,8.2,12.1,98,0.00,,,0.01,Rainwise IP-100,2013-02-20 09:00:00,
2013-02-20 04:05:00,37.8,38.0,29.61,ENE,67,10.7,11.2,98,0.00,,,0.01,Rainwise IP-100,2013-02-20 09:05:00,
2013-02-20 04:10:00,37.6,38.0,29.61,ESE,112,5.4,10.7,98,0.00,,,0.01,Rainwise IP-100,2013-02-20 09:10:00,
2013-02-20 04:15:00,37.5,38.0,29.61,ESE,112,4.7,12.8,98,0.00,,,0.01,Rainwise IP-100,2013-02-20 09:15:00,
2013-02-20 04:20:00,37.4,37.0,29.61,ESE,112,4.0,11.9,98,0.00,,,0.01,Rainwise IP-100,2013-02-20 09:20:00,
2013-02-20 04:25:00,37.4,37.0,29.61,East,90,6.5,14.9,98,0.00,,,0.01,Rainwise IP-100,2013-02-20 09:25:00,
2013-02-20 04:30:00,37.3,37.0,29.61,ESE,112,3.3,10.7,98,0.00,,,0.01,Rainwise IP-100,2013-02-20 09:30:00,
2013-02-20 04:35:00,37.3,37.0,29.62,ESE,112,7.2,12.1,98,0.00,,,0.01,Rainwise IP-100,2013-02-20 09:35:00,
2013-02-20 04:40:00,37.2,37.0,29.61,ESE,112,5.8,11.9,98,0.00,,,0.01,Rainwise IP-100,2013-02-20 09:40:00,
2013-02-20 04:45:00,37.2,37.0,29.62,ESE,112,5.6,15.6,98,0.00,,,0.01,Rainwise IP-100,2013-02-20 09:45:00,
2013-02-20 04:50:00,37.2,37.0,29.62,ESE,112,3.7,11.9,98,0.00,,,0.01,Rainwise IP-100,2013-02-20 09:50:00,
2013-02-20 04:55:00,37.1,36.0,29.61,East,90,5.6,11.2,97,0.00,,,0.01,Rainwise IP-100,2013-02-20 09:55:00,
2013-02-20 05:00:00,37.0,36.0,29.61,East,90,11.2,11.7,97,0.00,,,0.01,Rainwise IP-100,2013-02-20 10:00:00,
2013-02-20 05:05:00,36.8,36.0,29.62,ESE,112,3.5,11.2,97,0.00,,,0.01,Rainwise IP-100,2013-02-20 10:05:00,
2013-02-20 05:10:00,36.7,36.0,29.62,ENE,67,8.9,10.3,97,0.00,,,0.01,Rainwise IP-100,2013-02-20 10:10:00,
2013-02-20 05:15:00,36.7,36.0,29.62,ESE,112,5.1,11.4,97,0.00,,,0.01,Rainwise IP-100,2013-02-20 10:15:00,
2013-02-20 05:20:00,36.7,36.0,29.63,ESE,112,3.3,10.7,97,0.00,,,0.01,Rainwise IP-100,2013-02-20 10:20:00,
2013-02-20 05:25:00,36.6,36.0,29.62,East,90,8.4,10.7,97,0.00,,,0.01,Rainwise IP-100,2013-02-20 10:25:00,
2013-02-20 05:30:00,36.5,36.0,29.62,East,90,4.4,13.5,97,0.00,,,0.01,Rainwise IP-100,2013-02-20 10:30:00,
2013-02-20 05:35:00,36.5,36.0,29.63,ESE,112,6.1,10.3,97,0.00,,,0.01,Rainwise IP-100,2013-02-20 10:35:00,
2013-02-20 05:40:00,36.5,36.0,29.63,ESE,112,4.9,12.6,96,0.00,,,0.01,Rainwise IP-100,2013-02-20 10:40:00,
2013-02-20 05:45:00,36.4,35.0,29.63,ESE,112,5.6,12.1,96,0.00,,,0.01,Rainwise IP-100,2013-02-20 10:45:00,
2013-02-20 05:50:00,36.4,35.0,29.63,East,90,7.5,13.1,95,0.00,,,0.01,Rainwise IP-100,2013-02-20 10:50:00,
2013-02-20 05:55:00,36.3,35.0,29.63,ESE,112,9.8,16.8,95,0.00,,,0.01,Rainwise IP-100,2013-02-20 10:55:00,
2013-02-20 06:00:00,36.1,35.0,29.63,East,90,8.2,14.2,94,0.00,,,0.01,Rainwise IP-100,2013-02-20 11:00:00,
2013-02-20 06:05:00,35.9,35.0,29.63,ESE,112,6.1,12.6,94,0.00,,,0.01,Rainwise IP-100,2013-02-20 11:05:00,
2013-02-20 06:10:00,35.7,35.0,29.64,ESE,112,8.2,14.0,94,0.00,,,0.01,Rainwise IP-100,2013-02-20 11:10:00,
2013-02-20 06:15:00,35.5,35.0,29.64,SE,135,2.6,12.1,94,0.00,,,0.01,Rainwise IP-100,2013-02-20 11:15:00,
2013-02-20 06:20:00,35.3,33.0,29.64,ESE,112,5.8,13.5,94,0.00,,,0.01,Rainwise IP-100,2013-02-20 11:20:00,
2013-02-20 06:25:00,35.1,33.0,29.64,ESE,112,5.4,14.7,93,0.00,,,0.01,Rainwise IP-100,2013-02-20 11:25:00,
2013-02-20 06:30:00,34.9,32.0,29.65,ESE,112,7.5,14.5,92,0.00,,,0.01,Rainwise IP-100,2013-02-20 11:30:00,
2013-02-20 06:35:00,34.8,32.0,29.65,ESE,112,11.0,13.3,92,0.00,,,0.01,Rainwise IP-100,2013-02-20 11:35:00,
2013-02-20 06:40:00,34.7,32.0,29.65,ESE,112,5.6,16.3,91,0.00,,,0.01,Rainwise IP-100,2013-02-20 11:40:00,
2013-02-20 06:45:00,34.6,32.0,29.66,SSE,157,6.5,14.5,91,0.00,,,0.01,Rainwise IP-100,2013-02-20 11:45:00,
2013-02-20 06:50:00,34.4,32.0,29.66,ESE,112,10.5,18.4,91,0.00,,,0.01,Rainwise IP-100,2013-02-20 11:50:00,
2013-02-20 06:55:00,34.2,32.0,29.66,ESE,112,12.4,16.1,90,0.00,,,0.01,Rainwise IP-100,2013-02-20 11:55:00,
2013-02-20 07:00:00,34.1,32.0,29.66,ESE,112,6.1,14.7,90,0.00,,,0.01,Rainwise IP-100,2013-02-20 12:00:00,
2013-02-20 07:05:00,34.0,32.0,29.67,ESE,112,9.8,14.5,89,0.00,,,0.01,Rainwise IP-100,2013-02-20 12:05:00,
2013-02-20 07:10:00,33.9,32.0,29.67,ESE,112,11.9,14.2,89,0.00,,,0.01,Rainwise IP-100,2013-02-20 12:10:00,
2013-02-20 07:15:00,33.8,32.0,29.67,SE,135,4.9,15.2,89,0.00,,,0.01,Rainwise IP-100,2013-02-20 12:15:00,
2013-02-20 07:20:00,33.8,32.0,29.67,East,90,4.2,13.1,88,0.00,,,0.01,Rainwise IP-100,2013-02-20 12:20:00,
2013-02-20 07:25:00,33.8,31.0,29.68,ENE,67,11.0,15.2,87,0.00,,,0.01,Rainwise IP-100,2013-02-20 12:25:00,
2013-02-20 07:30:00,33.8,31.0,29.68,ESE,112,4.4,14.7,87,0.00,,,0.01,Rainwise IP-100,2013-02-20 12:30:00,
2013-02-20 07:35:00,33.8,31.0,29.68,ESE,112,4.4,13.8,86,0.00,,,0.01,Rainwise IP-100,2013-02-20 12:35:00,
2013-02-20 07:40:00,33.8,31.0,29.67,ESE,112,6.1,15.9,86,0.00,,,0.01,Rainwise IP-100,2013-02-20 12:40:00,
2013-02-20 07:45:00,33.8,31.0,29.68,ESE,112,5.8,10.5,85,0.00,,,0.01,Rainwise IP-100,2013-02-20 12:45:00,
2013-02-20 07:50:00,33.8,31.0,29.68,ESE,112,3.3,15.4,84,0.00,,,0.01,Rainwise IP-100,2013-02-20 12:50:00,
2013-02-20 07:55:00,33.8,31.0,29.68,NE,45,10.7,14.5,84,0.00,,,0.01,Rainwise IP-100,2013-02-20 12:55:00,
2013-02-20 08:00:00,33.8,31.0,29.69,ESE,112,7.5,18.4,83,0.00,,,0.01,Rainwise IP-100,2013-02-20 13:00:00,
2013-02-20 08:05:00,33.9,29.0,29.69,East,90,4.4,15.6,82,0.00,,,0.01,Rainwise IP-100,2013-02-20 13:05:00,
2013-02-20 08:10:00,33.9,29.0,29.69,ESE,112,5.1,11.7,82,0.00,,,0.01,Rainwise IP-100,2013-02-20 13:10:00,
2013-02-20 08:15:00,33.9,29.0,29.70,ESE,112,10.3,13.5,82,0.00,,,0.01,Rainwise IP-100,2013-02-20 13:15:00,
2013-02-20 08:20:00,33.9,29.0,29.69,East,90,11.9,16.8,82,0.00,,,0.01,Rainwise IP-100,2013-02-20 13:20:00,
2013-02-20 08:25:00,33.9,29.0,29.69,ESE,112,11.7,18.7,81,0.00,,,0.01,Rainwise IP-100,2013-02-20 13:25:00,
2013-02-20 08:30:00,34.0,29.0,29.69,SSE,157,4.4,23.1,80,0.00,,,0.01,Rainwise IP-100,2013-02-20 13:30:00,
2013-02-20 08:35:00,34.0,28.0,29.69,ESE,112,16.1,22.6,77,0.00,,,0.01,Rainwise IP-100,2013-02-20 13:35:00,
2013-02-20 08:40:00,33.9,28.0,29.70,East,90,9.1,23.6,74,0.00,,,0.01,Rainwise IP-100,2013-02-20 13:40:00,
2013-02-20 08:45:00,33.8,26.0,29.70,ESE,112,15.6,16.6,71,0.00,,,0.01,Rainwise IP-100,2013-02-20 13:45:00,
2013-02-20 08:50:00,33.8,26.0,29.70,ESE,112,10.0,18.7,70,0.00,,,0.01,Rainwise IP-100,2013-02-20 13:50:00,
2013-02-20 08:55:00,33.8,26.0,29.68,ESE,112,9.3,22.2,70,0.00,,,0.01,Rainwise IP-100,2013-02-20 13:55:00,
2013-02-20 09:00:00,33.9,26.0,29.70,ESE,112,6.5,15.4,70,0.00,,,0.01,Rainwise IP-100,2013-02-20 14:00:00,
2013-02-20 09:05:00,33.9,26.0,29.70,ENE,67,11.9,18.0,70,0.00,,,0.01,Rainwise IP-100,2013-02-20 14:05:00,
2013-02-20 09:10:00,33.8,26.0,29.70,ESE,112,10.0,16.8,70,0.00,,,0.01,Rainwise IP-100,2013-02-20 14:10:00,
2013-02-20 09:15:00,33.7,26.0,29.70,ESE,112,6.3,16.8,70,0.00,,,0.01,Rainwise IP-100,2013-02-20 14:15:00,
2013-02-20 09:20:00,33.7,26.0,29.71,ESE,112,7.5,16.1,69,0.00,,,0.01,Rainwise IP-100,2013-02-20 14:20:00,
2013-02-20 09:25:00,33.7,26.0,29.70,ENE,67,4.9,15.6,68,0.00,,,0.01,Rainwise IP-100,2013-02-20 14:25:00,
2013-02-20 09:30:00,33.7,26.0,29.70,ESE,112,6.1,16.6,68,0.00,,,0.01,Rainwise IP-100,2013-02-20 14:30:00,
2013-02-20 09:35:00,33.7,24.0,29.70,East,90,11.0,14.7,67,0.00,,,0.01,Rainwise IP-100,2013-02-20 14:35:00,
2013-02-20 09:40:00,33.7,24.0,29.71,ESE,112,7.9,19.6,67,0.00,,,0.01,Rainwise IP-100,2013-02-20 14:40:00,
2013-02-20 09:45:00,33.7,24.0,29.70,East,90,3.0,19.4,66,0.00,,,0.01,Rainwise IP-100,2013-02-20 14:45:00,
2013-02-20 09:50:00,33.8,24.0,29.70,ESE,112,11.2,19.8,66,0.00,,,0.01,Rainwise IP-100,2013-02-20 14:50:00,
2013-02-20 09:55:00,33.8,24.0,29.71,ESE,112,6.3,18.2,65,0.00,,,0.01,Rainwise IP-100,2013-02-20 14:55:00,
2013-02-20 10:00:00,33.8,24.0,29.71,East,90,12.6,14.7,65,0.00,,,0.01,Rainwise IP-100,2013-02-20 15:00:00,
2013-02-20 10:05:00,33.9,24.0,29.70,East,90,4.0,22.4,64,0.00,,,0.01,Rainwise IP-100,2013-02-20 15:05:00,
2013-02-20 10:10:00,33.8,24.0,29.70,ESE,112,9.8,18.0,63,0.00,,,0.01,Rainwise IP-100,2013-02-20 15:10:00,
2013-02-20 10:15:00,33.9,23.0,29.70,ESE,112,18.0,18.0,60,0.00,,,0.01,Rainwise IP-100,2013-02-20 15:15:00,
2013-02-20 10:20:00,34.2,23.0,29.71,ESE,112,11.7,21.2,59,0.00,,,0.01,Rainwise IP-100,2013-02-20 15:20:00,
2013-02-20 10:25:00,34.4,23.0,29.71,ENE,67,5.8,15.2,60,0.00,,,0.01,Rainwise IP-100,2013-02-20 15:25:00,
2013-02-20 10:30:00,34.7,23.0,29.70,ESE,112,14.2,21.9,59,0.00,,,0.01,Rainwise IP-100,2013-02-20 15:30:00,
2013-02-20 10:35:00,34.8,23.0,29.71,ESE,112,7.2,18.7,58,0.00,,,0.01,Rainwise IP-100,2013-02-20 15:35:00,
2013-02-20 10:40:00,34.7,21.0,29.69,ENE,67,12.6,21.0,57,0.00,,,0.01,Rainwise IP-100,2013-02-20 15:40:00,
2013-02-20 10:45:00,34.7,21.0,29.70,ESE,112,11.2,25.6,57,0.00,,,0.01,Rainwise IP-100,2013-02-20 15:45:00,
2013-02-20 10:50:00,34.7,21.0,29.70,ESE,112,4.4,18.9,56,0.00,,,0.01,Rainwise IP-100,2013-02-20 15:50:00,
2013-02-20 10:55:00,34.6,21.0,29.71,ESE,112,12.1,18.0,56,0.00,,,0.01,Rainwise IP-100,2013-02-20 15:55:00,
2013-02-20 11:00:00,34.8,21.0,29.71,ESE,112,8.9,21.7,56,0.00,,,0.01,Rainwise IP-100,2013-02-20 16:00:00,
2013-02-20 11:05:00,34.9,21.0,29.70,ESE,112,9.1,18.0,56,0.00,,,0.01,Rainwise IP-100,2013-02-20 16:05:00,
2013-02-20 11:10:00,34.8,21.0,29.70,ESE,112,17.7,21.7,55,0.00,,,0.01,Rainwise IP-100,2013-02-20 16:10:00,
2013-02-20 11:15:00,34.7,21.0,29.70,ESE,112,13.3,24.9,54,0.00,,,0.01,Rainwise IP-100,2013-02-20 16:15:00,
2013-02-20 11:20:00,34.7,21.0,29.70,ESE,112,7.7,20.8,54,0.00,,,0.01,Rainwise IP-100,2013-02-20 16:20:00,
2013-02-20 11:25:00,34.5,21.0,29.70,ESE,112,10.7,22.4,53,0.00,,,0.01,Rainwise IP-100,2013-02-20 16:25:00,
2013-02-20 11:30:00,34.5,21.0,29.70,SSW,202,2.3,23.3,53,0.00,,,0.01,Rainwise IP-100,2013-02-20 16:30:00,
2013-02-20 11:35:00,34.8,21.0,29.70,ENE,67,7.2,22.9,53,0.00,,,0.01,Rainwise IP-100,2013-02-20 16:35:00,
2013-02-20 11:40:00,35.2,21.0,29.70,SSE,157,8.2,22.2,53,0.00,,,0.01,Rainwise IP-100,2013-02-20 16:40:00,
2013-02-20 11:45:00,35.2,18.0,29.69,ESE,112,14.7,20.8,52,0.00,,,0.01,Rainwise IP-100,2013-02-20 16:45:00,
2013-02-20 11:50:00,35.0,18.0,29.70,SE,135,5.6,22.2,51,0.00,,,0.01,Rainwise IP-100,2013-02-20 16:50:00,
2013-02-20 11:55:00,34.9,18.0,29.69,ESE,112,6.8,23.6,51,0.00,,,0.01,Rainwise IP-100,2013-02-20 16:55:00,
2013-02-20 12:00:00,34.9,18.0,29.69,ESE,112,15.2,30.1,51,0.00,,,0.01,Rainwise IP-100,2013-02-20 17:00:00,
2013-02-20 12:05:00,34.9,18.0,29.69,SSE,157,4.7,18.4,51,0.00,,,0.01,Rainwise IP-100,2013-02-20 17:05:00,
2013-02-20 12:10:00,34.9,18.0,29.68,East,90,11.9,22.9,51,0.00,,,0.01,Rainwise IP-100,2013-02-20 17:10:00,
2013-02-20 12:15:00,34.9,18.0,29.67,ESE,112,9.3,22.9,50,0.00,,,0.01,Rainwise IP-100,2013-02-20 17:15:00,
2013-02-20 12:20:00,34.7,18.0,29.68,East,90,9.8,22.6,50,0.00,,,0.01,Rainwise IP-100,2013-02-20 17:20:00,
2013-02-20 12:25:00,34.8,18.0,29.69,ESE,112,14.5,23.6,50,0.00,,,0.01,Rainwise IP-100,2013-02-20 17:25:00,
2013-02-20 12:30:00,35.1,18.0,29.69,East,90,8.9,20.8,50,0.00,,,0.01,Rainwise IP-100,2013-02-20 17:30:00,
2013-02-20 12:35:00,35.3,18.0,29.68,East,90,17.5,20.3,49,0.00,,,0.01,Rainwise IP-100,2013-02-20 17:35:00,
2013-02-20 12:40:00,35.3,18.0,29.68,ENE,67,11.4,23.8,49,0.00,,,0.01,Rainwise IP-100,2013-02-20 17:40:00,
2013-02-20 12:45:00,34.9,18.0,29.68,ENE,67,9.1,23.6,48,0.00,,,0.01,Rainwise IP-100,2013-02-20 17:45:00,
2013-02-20 12:50:00,34.7,18.0,29.68,ESE,112,7.5,21.7,48,0.00,,,0.01,Rainwise IP-100,2013-02-20 17:50:00,
2013-02-20 12:55:00,34.7,18.0,29.67,ESE,112,1.6,21.7,48,0.00,,,0.01,Rainwise IP-100,2013-02-20 17:55:00,
2013-02-20 13:00:00,35.0,18.0,29.68,ESE,112,13.5,18.4,49,0.00,,,0.01,Rainwise IP-100,2013-02-20 18:00:00,
2013-02-20 13:05:00,35.2,18.0,29.69,ESE,112,7.7,23.1,49,0.00,,,0.01,Rainwise IP-100,2013-02-20 18:05:00,
2013-02-20 13:10:00,35.3,18.0,29.68,ESE,112,10.0,26.1,49,0.00,,,0.01,Rainwise IP-100,2013-02-20 18:10:00,
2013-02-20 13:15:00,35.2,18.0,29.68,SSE,157,13.8,24.5,48,0.00,,,0.01,Rainwise IP-100,2013-02-20 18:15:00,
2013-02-20 13:20:00,34.8,16.0,29.68,ESE,112,12.1,22.2,47,0.06,,,0.02,Rainwise IP-100,2013-02-20 18:20:00,
2013-02-20 13:25:00,34.8,16.0,29.67,ENE,67,6.8,22.2,47,0.06,,,0.02,Rainwise IP-100,2013-02-20 18:25:00,
2013-02-20 13:30:00,34.8,16.0,29.67,ESE,112,13.5,30.1,47,0.00,,,0.02,Rainwise IP-100,2013-02-20 18:30:00,
2013-02-20 13:35:00,34.9,16.0,29.68,East,90,20.1,26.8,46,0.00,,,0.02,Rainwise IP-100,2013-02-20 18:35:00,
2013-02-20 13:40:00,34.9,16.0,29.67,ESE,112,15.9,21.9,46,0.00,,,0.02,Rainwise IP-100,2013-02-20 18:40:00,
2013-02-20 13:45:00,35.2,16.0,29.67,ESE,112,13.5,22.9,46,0.00,,,0.02,Rainwise IP-100,2013-02-20 18:45:00,
2013-02-20 13:50:00,35.2,16.0,29.68,ESE,112,15.6,20.5,46,0.00,,,0.02,Rainwise IP-100,2013-02-20 18:50:00,
2013-02-20 13:55:00,34.9,16.0,29.67,ENE,67,14.7,23.1,45,0.00,,,0.02,Rainwise IP-100,2013-02-20 18:55:00,
2013-02-20 14:00:00,34.8,16.0,29.68,SSE,157,3.0,22.2,45,0.00,,,0.02,Rainwise IP-100,2013-02-20 19:00:00,
2013-02-20 14:05:00,35.2,16.0,29.68,ESE,112,6.1,18.7,46,0.00,,,0.02,Rainwise IP-100,2013-02-20 19:05:00,
2013-02-20 14:10:00,35.2,16.0,29.68,ESE,112,4.0,20.8,46,0.00,,,0.02,Rainwise IP-100,2013-02-20 19:10:00,
2013-02-20 14:15:00,35.2,16.0,29.68,SSE,157,5.1,17.5,45,0.00,,,0.02,Rainwise IP-100,2013-02-20 19:15:00,
2013-02-20 14:20:00,35.5,16.0,29.69,ESE,112,11.0,13.5,45,0.00,,,0.02,Rainwise IP-100,2013-02-20 19:20:00,
2013-02-20 14:25:00,35.3,16.0,29.67,ESE,112,1.9,25.2,44,0.00,,,0.02,Rainwise IP-100,2013-02-20 19:25:00,
2013-02-20 14:30:00,35.3,16.0,29.68,East,90,19.1,19.4,44,0.00,,,0.02,Rainwise IP-100,2013-02-20 19:30:00,
2013-02-20 14:35:00,35.4,16.0,29.68,SE,135,5.6,19.1,44,0.00,,,0.02,Rainwise IP-100,2013-02-20 19:35:00,
2013-02-20 14:40:00,35.3,16.0,29.67,ESE,112,14.7,23.1,43,0.00,,,0.02,Rainwise IP-100,2013-02-20 19:40:00,
2013-02-20 14:45:00,35.2,14.0,29.69,ENE,67,10.0,21.2,42,0.00,,,0.02,Rainwise IP-100,2013-02-20 19:45:00,
2013-02-20 14:50:00,35.2,14.0,29.69,ESE,112,3.5,19.6,42,0.00,,,0.02,Rainwise IP-100,2013-02-20 19:50:00,
2013-02-20 14:55:00,34.9,14.0,29.68,SSW,202,5.6,25.4,42,0.00,,,0.02,Rainwise IP-100,2013-02-20 19:55:00,
2013-02-20 15:00:00,34.7,14.0,29.68,East,90,11.7,21.5,42,0.00,,,0.02,Rainwise IP-100,2013-02-20 20:00:00,
2013-02-20 15:05:00,34.5,16.0,29.69,ESE,112,5.4,24.2,43,0.00,,,0.02,Rainwise IP-100,2013-02-20 20:05:00,
2013-02-20 15:10:00,34.3,16.0,29.68,SE,135,7.2,24.0,44,0.00,,,0.02,Rainwise IP-100,2013-02-20 20:10:00,
2013-02-20 15:15:00,34.2,16.0,29.69,ESE,112,11.7,22.6,44,0.00,,,0.02,Rainwise IP-100,2013-02-20 20:15:00,
2013-02-20 15:20:00,34.2,16.0,29.68,SSE,157,12.1,18.4,44,0.00,,,0.02,Rainwise IP-100,2013-02-20 20:20:00,
2013-02-20 15:25:00,34.3,16.0,29.69,ESE,112,13.8,22.9,44,0.00,,,0.02,Rainwise IP-100,2013-02-20 20:25:00,
2013-02-20 15:30:00,34.2,16.0,29.69,SE,135,17.3,19.4,44,0.00,,,0.02,Rainwise IP-100,2013-02-20 20:30:00,
2013-02-20 15:35:00,34.2,16.0,29.70,East,90,4.9,23.3,44,0.00,,,0.02,Rainwise IP-100,2013-02-20 20:35:00,
2013-02-20 15:40:00,34.0,16.0,29.69,East,90,10.5,18.4,44,0.00,,,0.02,Rainwise IP-100,2013-02-20 20:40:00,
2013-02-20 15:45:00,33.9,16.0,29.70,ESE,112,9.6,18.9,43,0.00,,,0.02,Rainwise IP-100,2013-02-20 20:45:00,
2013-02-20 15:50:00,34.1,16.0,29.69,ESE,112,16.1,16.8,43,0.00,,,0.02,Rainwise IP-100,2013-02-20 20:50:00,
2013-02-20 15:55:00,34.2,16.0,29.69,ESE,112,21.2,21.2,43,0.00,,,0.02,Rainwise IP-100,2013-02-20 20:55:00,
2013-02-20 16:00:00,34.0,16.0,29.70,SE,135,8.9,21.2,43,0.00,,,0.02,Rainwise IP-100,2013-02-20 21:00:00,
2013-02-20 16:05:00,33.9,16.0,29.70,ESE,112,10.5,23.6,43,0.00,,,0.02,Rainwise IP-100,2013-02-20 21:05:00,
2013-02-20 16:10:00,33.8,16.0,29.70,ESE,112,14.5,21.9,43,0.00,,,0.02,Rainwise IP-100,2013-02-20 21:10:00,
2013-02-20 16:15:00,33.4,14.0,29.69,ENE,67,10.5,23.8,43,0.00,,,0.02,Rainwise IP-100,2013-02-20 21:15:00,
2013-02-20 16:20:00,33.1,14.0,29.69,ESE,112,10.3,24.2,42,0.00,,,0.02,Rainwise IP-100,2013-02-20 21:20:00,
2013-02-20 16:25:00,33.1,14.0,29.70,ESE,112,4.2,24.0,42,0.00,,,0.02,Rainwise IP-100,2013-02-20 21:25:00,
2013-02-20 16:30:00,32.9,14.0,29.70,ESE,112,15.6,24.0,42,0.00,,,0.02,Rainwise IP-100,2013-02-20 21:30:00,
2013-02-20 16:35:00,32.8,14.0,29.71,ESE,112,6.5,22.4,42,0.00,,,0.02,Rainwise IP-100,2013-02-20 21:35:00,
2013-02-20 16:40:00,32.8,14.0,29.71,East,90,7.9,20.5,42,0.00,,,0.02,Rainwise IP-100,2013-02-20 21:40:00,
2013-02-20 16:45:00,32.6,14.0,29.71,ESE,112,10.7,27.3,42,0.00,,,0.02,Rainwise IP-100,2013-02-20 21:45:00,
2013-02-20 16:50:00,32.3,14.0,29.70,ESE,112,7.5,20.8,42,0.00,,,0.02,Rainwise IP-100,2013-02-20 21:50:00,
2013-02-20 16:55:00,32.1,14.0,29.71,ESE,112,15.9,21.2,42,0.00,,,0.02,Rainwise IP-100,2013-02-20 21:55:00,
2013-02-20 17:00:00,32.0,14.0,29.71,ENE,67,9.8,19.1,43,0.00,,,0.02,Rainwise IP-100,2013-02-20 22:00:00,
2013-02-20 17:05:00,31.9,14.0,29.70,East,90,5.6,17.7,44,0.00,,,0.02,Rainwise IP-100,2013-02-20 22:05:00,
2013-02-20 17:10:00,31.8,14.0,29.72,ESE,112,4.0,21.5,44,0.00,,,0.02,Rainwise IP-100,2013-02-20 22:10:00,
2013-02-20 17:15:00,31.6,14.0,29.71,ENE,67,7.9,23.1,44,0.00,,,0.02,Rainwise IP-100,2013-02-20 22:15:00,
2013-02-20 17:20:00,31.6,14.0,29.72,East,90,11.7,20.8,45,0.00,,,0.02,Rainwise IP-100,2013-02-20 22:20:00,
2013-02-20 17:25:00,31.4,14.0,29.72,ESE,112,3.7,18.0,46,0.00,,,0.02,Rainwise IP-100,2013-02-20 22:25:00,
2013-02-20 17:30:00,31.2,14.0,29.72,ESE,112,9.1,21.0,46,0.00,,,0.02,Rainwise IP-100,2013-02-20 22:30:00,
2013-02-20 17:35:00,31.1,14.0,29.72,ESE,112,18.9,26.8,46,0.00,,,0.02,Rainwise IP-100,2013-02-20 22:35:00,
2013-02-20 17:40:00,31.0,14.0,29.72,East,90,10.5,25.6,47,0.00,,,0.02,Rainwise IP-100,2013-02-20 22:40:00,
2013-02-20 17:45:00,30.9,14.0,29.72,ESE,112,10.3,20.3,47,0.00,,,0.02,Rainwise IP-100,2013-02-20 22:45:00,
2013-02-20 17:50:00,30.8,14.0,29.73,East,90,18.9,18.9,47,0.00,,,0.02,Rainwise IP-100,2013-02-20 22:50:00,
2013-02-20 17:55:00,30.7,14.0,29.72,East,90,10.0,18.9,48,0.00,,,0.02,Rainwise IP-100,2013-02-20 22:55:00,
2013-02-20 18:00:00,30.6,14.0,29.74,ENE,67,8.9,16.3,48,0.00,,,0.02,Rainwise IP-100,2013-02-20 23:00:00,
2013-02-20 18:05:00,30.5,14.0,29.74,ESE,112,11.2,19.1,48,0.00,,,0.02,Rainwise IP-100,2013-02-20 23:05:00,
2013-02-20 18:10:00,30.4,14.0,29.74,ESE,112,11.2,19.4,48,0.00,,,0.02,Rainwise IP-100,2013-02-20 23:10:00,
2013-02-20 18:15:00,30.3,14.0,29.74,ESE,112,6.3,25.2,47,0.00,,,0.02,Rainwise IP-100,2013-02-20 23:15:00,
2013-02-20 18:20:00,30.2,14.0,29.74,ESE,112,9.8,22.6,47,0.00,,,0.02,Rainwise IP-100,2013-02-20 23:20:00,
2013-02-20 18:25:00,30.2,14.0,29.74,ESE,112,23.6,23.6,47,0.00,,,0.02,Rainwise IP-100,2013-02-20 23:25:00,
2013-02-20 18:30:00,30.2,14.0,29.75,NE,45,4.2,29.8,47,0.00,,,0.02,Rainwise IP-100,2013-02-20 23:30:00,
2013-02-20 18:35:00,30.2,14.0,29.75,SE,135,5.4,18.4,47,0.00,,,0.02,Rainwise IP-100,2013-02-20 23:35:00,
2013-02-20 18:40:00,30.1,14.0,29.75,ESE,112,13.5,16.8,47,0.00,,,0.02,Rainwise IP-100,2013-02-20 23:40:00,
2013-02-20 18:45:00,30.0,14.0,29.76,ESE,112,3.3,18.0,47,0.00,,,0.02,Rainwise IP-100,2013-02-20 23:45:00,
2013-02-20 18:50:00,30.0,14.0,29.76,ESE,112,7.9,23.8,47,0.00,,,0.02,Rainwise IP-100,2013-02-20 23:50:00,
2013-02-20 18:55:00,30.0,14.0,29.75,South,180,4.2,19.6,47,0.00,,,0.02,Rainwise IP-100,2013-02-20 23:55:00,
2013-02-20 19:00:00,30.0,14.0,29.75,ESE,112,18.2,24.7,46,0.00,,,0.02,Rainwise IP-100,2013-02-21 00:00:00,
2013-02-20 19:05:00,29.9,14.0,29.76,ESE,112,13.8,23.8,46,0.00,,,0.02,Rainwise IP-100,2013-02-21 00:05:00,
2013-02-20 19:10:00,29.8,14.0,29.76,SSE,157,3.0,18.7,45,0.00,,,0.02,Rainwise IP-100,2013-02-21 00:10:00,
2013-02-20 19:15:00,29.7,14.0,29.75,SSE,157,5.6,22.6,45,0.06,,,0.03,Rainwise IP-100,2013-02-21 00:15:00,
2013-02-20 19:20:00,29.6,14.0,29.76,WSW,247,4.0,21.0,45,0.06,,,0.03,Rainwise IP-100,2013-02-21 00:20:00,
2013-02-20 19:25:00,29.5,14.0,29.75,ESE,112,6.8,18.9,45,0.00,,,0.03,Rainwise IP-100,2013-02-21 00:25:00,
2013-02-20 19:30:00,29.4,11.0,29.76,ESE,112,9.3,17.0,46,0.00,,,0.03,Rainwise IP-100,2013-02-21 00:30:00,
2013-02-20 19:35:00,29.2,11.0,29.76,ESE,112,9.8,14.5,46,0.00,,,0.03,Rainwise IP-100,2013-02-21 00:35:00,
2013-02-20 19:40:00,29.2,11.0,29.76,ENE,67,6.1,18.9,46,0.00,,,0.03,Rainwise IP-100,2013-02-21 00:40:00,
2013-02-20 19:45:00,29.2,11.0,29.77,NE,45,3.0,17.7,46,0.00,,,0.03,Rainwise IP-100,2013-02-21 00:45:00,
2013-02-20 19:50:00,29.2,14.0,29.76,ESE,112,13.3,13.3,47,0.00,,,0.03,Rainwise IP-100,2013-02-21 00:50:00,
2013-02-20 19:55:00,29.1,14.0,29.77,ENE,67,4.0,20.5,48,0.00,,,0.03,Rainwise IP-100,2013-02-21 00:55:00,
2013-02-20 20:00:00,29.1,14.0,29.77,East,90,2.6,16.3,48,0.00,,,0.03,Rainwise IP-100,2013-02-21 01:00:00,
2013-02-20 20:05:00,29.0,14.0,29.77,ESE,112,11.9,16.8,48,0.00,,,0.03,Rainwise IP-100,2013-02-21 01:05:00,
2013-02-20 20:10:00,29.0,14.0,29.78,ESE,112,12.4,20.3,48,0.00,,,0.03,Rainwise IP-100,2013-02-21 01:10:00,
2013-02-20 20:15:00,28.9,14.0,29.78,ESE,112,9.3,15.6,48,0.00,,,0.03,Rainwise IP-100,2013-02-21 01:15:00,
2013-02-20 20:20:00,28.8,14.0,29.77,ESE,112,23.8,25.4,48,0.00,,,0.03,Rainwise IP-100,2013-02-21 01:20:00,
2013-02-20 20:25:00,28.8,14.0,29.78,ESE,112,7.7,23.8,47,0.00,,,0.03,Rainwise IP-100,2013-02-21 01:25:00,
2013-02-20 20:30:00,28.8,14.0,29.78,ESE,112,6.1,22.4,47,0.00,,,0.03,Rainwise IP-100,2013-02-21 01:30:00,
2013-02-20 20:35:00,28.7,14.0,29.79,SE,135,16.1,21.9,47,0.00,,,0.03,Rainwise IP-100,2013-02-21 01:35:00,
2013-02-20 20:40:00,28.6,14.0,29.78,SE,135,4.4,23.1,48,0.00,,,0.03,Rainwise IP-100,2013-02-21 01:40:00,
2013-02-20 20:45:00,28.5,14.0,29.77,East,90,23.6,24.7,47,0.00,,,0.03,Rainwise IP-100,2013-02-21 01:45:00,
2013-02-20 20:50:00,28.5,14.0,29.78,NE,45,2.3,23.6,48,0.00,,,0.03,Rainwise IP-100,2013-02-21 01:50:00,
2013-02-20 20:55:00,28.4,11.0,29.78,East,90,15.6,25.4,48,0.00,,,0.03,Rainwise IP-100,2013-02-21 01:55:00,
2013-02-20 21:00:00,28.4,11.0,29.77,SE,135,10.7,19.1,49,0.00,,,0.03,Rainwise IP-100,2013-02-21 02:00:00,
2013-02-20 21:05:00,28.4,11.0,29.78,ESE,112,9.8,22.6,49,0.00,,,0.03,Rainwise IP-100,2013-02-21 02:05:00,
2013-02-20 21:10:00,28.3,11.0,29.79,ESE,112,8.2,22.4,49,0.00,,,0.03,Rainwise IP-100,2013-02-21 02:10:00,
2013-02-20 21:15:00,28.2,11.0,29.79,ESE,112,8.2,15.2,49,0.00,,,0.03,Rainwise IP-100,2013-02-21 02:15:00,
2013-02-20 21:20:00,28.2,14.0,29.79,ESE,112,4.2,26.6,50,0.00,,,0.03,Rainwise IP-100,2013-02-21 02:20:00,
2013-02-20 21:25:00,28.2,14.0,29.79,ESE,112,7.7,20.1,50,0.00,,,0.03,Rainwise IP-100,2013-02-21 02:25:00,
2013-02-20 21:30:00,28.1,14.0,29.79,NE,45,8.4,17.3,50,0.00,,,0.03,Rainwise IP-100,2013-02-21 02:30:00,
2013-02-20 21:35:00,28.1,14.0,29.79,ESE,112,11.2,20.5,51,0.00,,,0.03,Rainwise IP-100,2013-02-21 02:35:00,
2013-02-20 21:40:00,28.0,14.0,29.78,ESE,112,17.0,17.3,51,0.00,,,0.03,Rainwise IP-100,2013-02-21 02:40:00,
2013-02-20 21:45:00,28.0,14.0,29.80,ESE,112,13.1,19.8,51,0.00,,,0.03,Rainwise IP-100,2013-02-21 02:45:00,
2013-02-20 21:50:00,27.9,14.0,29.79,ESE,112,10.5,20.3,51,0.00,,,0.03,Rainwise IP-100,2013-02-21 02:50:00,
2013-02-20 21:55:00,27.9,14.0,29.78,ESE,112,10.7,18.2,51,0.00,,,0.03,Rainwise IP-100,2013-02-21 02:55:00,
2013-02-20 22:00:00,27.9,14.0,29.80,ESE,112,6.8,21.0,52,0.00,,,0.03,Rainwise IP-100,2013-02-21 03:00:00,
2013-02-20 22:05:00,27.8,14.0,29.80,ESE,112,13.1,14.9,52,0.00,,,0.03,Rainwise IP-100,2013-02-21 03:05:00,
2013-02-20 22:10:00,27.7,14.0,29.80,East,90,6.3,20.3,53,0.00,,,0.03,Rainwise IP-100,2013-02-21 03:10:00,
2013-02-20 22:16:00,27.6,14.0,29.80,ESE,112,9.3,22.9,53,0.00,,,0.03,Rainwise IP-100,2013-02-21 03:16:00,
2013-02-20 22:21:00,27.6,14.0,29.80,East,90,9.3,21.0,53,0.00,,,0.03,Rainwise IP-100,2013-02-21 03:21:00,
2013-02-20 22:26:00,27.6,14.0,29.80,ESE,112,14.5,16.3,53,0.00,,,0.03,Rainwise IP-100,2013-02-21 03:26:00,
2013-02-20 22:31:00,27.6,14.0,29.80,SSE,157,5.4,19.4,53,0.00,,,0.03,Rainwise IP-100,2013-02-21 03:31:00,
2013-02-20 22:36:00,27.6,14.0,29.80,ESE,112,6.8,21.7,53,0.00,,,0.03,Rainwise IP-100,2013-02-21 03:36:00,
2013-02-20 22:41:00,27.5,14.0,29.80,ESE,112,16.3,20.1,54,0.00,,,0.03,Rainwise IP-100,2013-02-21 03:41:00,
2013-02-20 22:46:00,27.5,14.0,29.81,East,90,4.9,20.1,54,0.00,,,0.03,Rainwise IP-100,2013-02-21 03:46:00,
2013-02-20 22:51:00,27.4,14.0,29.81,ENE,67,16.3,20.1,54,0.00,,,0.03,Rainwise IP-100,2013-02-21 03:51:00,
2013-02-20 22:56:00,27.4,14.0,29.81,SE,135,13.1,16.3,54,0.00,,,0.03,Rainwise IP-100,2013-02-21 03:56:00,
2013-02-20 23:01:00,27.4,14.0,29.81,ESE,112,6.5,23.6,55,0.00,,,0.03,Rainwise IP-100,2013-02-21 04:01:00,
2013-02-20 23:06:00,27.3,14.0,29.81,ESE,112,13.1,13.1,55,0.00,,,0.03,Rainwise IP-100,2013-02-21 04:06:00,
2013-02-20 23:11:00,27.2,14.0,29.81,ESE,112,4.9,19.4,56,0.00,,,0.03,Rainwise IP-100,2013-02-21 04:11:00,
2013-02-20 23:16:00,27.2,14.0,29.81,ESE,112,11.7,21.5,56,0.00,,,0.03,Rainwise IP-100,2013-02-21 04:16:00,
2013-02-20 23:21:00,27.1,14.0,29.82,East,90,6.3,21.2,56,0.00,,,0.03,Rainwise IP-100,2013-02-21 04:21:00,
2013-02-20 23:26:00,27.1,14.0,29.81,ESE,112,12.6,21.0,56,0.00,,,0.03,Rainwise IP-100,2013-02-21 04:26:00,
2013-02-20 23:31:00,27.2,14.0,29.81,ESE,112,11.0,21.0,56,0.00,,,0.03,Rainwise IP-100,2013-02-21 04:31:00,
2013-02-20 23:36:00,27.1,14.0,29.82,ESE,112,6.3,14.0,56,0.00,,,0.03,Rainwise IP-100,2013-02-21 04:36:00,
2013-02-20 23:41:00,27.0,16.0,29.82,NNE,22,7.9,23.1,57,0.00,,,0.03,Rainwise IP-100,2013-02-21 04:41:00,
2013-02-20 23:46:00,27.0,16.0,29.82,ESE,112,9.3,21.9,57,0.00,,,0.03,Rainwise IP-100,2013-02-21 04:46:00,
2013-02-20 23:51:00,27.0,16.0,29.82,ESE,112,7.9,15.9,57,0.00,,,0.03,Rainwise IP-100,2013-02-21 04:51:00,
2013-02-20 23:56:00,27.0,16.0,29.82,East,90,7.2,17.0,57,0.00,,,0.03,Rainwise IP-100,2013-02-21 04:56:00,